Regional Weather Roundup
Issued by NWS Newport/Morehead, NC

Current Version | Previous Version | Graphics & Text | Print | Product List | Glossary Off
Versions: 1 2 3 4 5 6 7 8 9 10 11 12 13 14 15 16 17 18 19 20 21 22 23 24 25 26 27 28 29 30 31 32 33 34 35 36 37 38 39 40 41 42 43 44 45 46 47 48

000
ASUS42 KMHX 230813
RWRMHX
WEATHER ROUNDUP FOR EASTERN NORTH CAROLINA
NATIONAL WEATHER SERVICE NEWPORT/MOREHEAD CITY NC
400 AM EDT MON APR 23 2018

NOTE: "FAIR" INDICATES FEW OR NO CLOUDS BELOW 12,000 FEET
WITH NO SIGNIFICANT WEATHER AND/OR OBSTRUCTIONS TO VISIBILITY

NCZ015>017-031-032-045>047-102-103-230900-
NORTH COAST

CITY           SKY/WX    TMP DP  RH WIND       PRES   REMARKS
EDENTON        FAIR      53  50  90 NE6       30.37R
ELIZABETH CITY FAIR      53  48  83 E7        30.37S
KITTY HAWK     FAIR      53  48  86 E5        30.36R
MANTEO         FAIR      54  49  83 E6        30.37S

$$

NCZ045>047-081-094-103-104-230900-
CENTRAL COAST

CITY           SKY/WX    TMP DP  RH WIND       PRES   REMARKS
FRISCO         FAIR      58  51  78 E7        30.34R

$$

NCZ095-097-098-100-101-230900-
SOUTHERN COAST

CITY           SKY/WX    TMP DP  RH WIND       PRES   REMARKS
BEAUFORT       FAIR      62  53  72 E6        30.30S
CEDAR ISLAND   NOT AVBL
JACKSONVILLE   FAIR      61  52  72 E13       30.26F
PINEY ISLAND   NOT AVBL
WILMINGTON     FAIR      62  49  62 E8        30.26R


$$

NCZ011>013-027>030-043-044-078>080-089-090>093-098-230900-
COASTAL PLAIN

CITY           SKY/WX    TMP DP  RH WIND       PRES   REMARKS
AHOSKIE        FAIR      46  46  97 CALM      30.36S
CLINTON        FAIR      58  52  80 E3        30.28S
ELIZABETHTOWN  FAIR      56  49  80 MISG      30.27R
GOLDSBORO      CLOUDY    54  49  86 E10       30.28F
GREENVILLE     FAIR      50  46  87 E5        30.33S
HAVELOCK       NOT AVBL
KENANSVILLE    MOCLDY    55  52  88 CALM      30.28S
KINSTON        FAIR      54  50  89 E7        30.31F
NEW BERN       FAIR      55  53  93 E7        30.31F
RICHLANDS      FAIR      57  52  83 NE6       30.28F
ROCKY MOUNT    FAIR      50  45  83 NE5       30.32F
WASHINGTON     FAIR      49  47  91 E6        30.34S
WHITEVILLE     FAIR      56  52  85 NE5       30.26R

$$

AMZ130-135-150-152-154-156-158-170-250-252-270-ANZ085-086-088-633-658-670-230900-
MARINE OBSERVATIONS

STATION/POSITION TIME  TEMP    WIND        PRES    WAVE   SWELL
                       AIR SEA DIR/SP/G            HT/PER HT/PER
                 (UTC) (F)     (DEG/KT/KT) (MB)    (FT/S) (FT/S)
CHESAPEAKE LIGHT NOT AVBL
64 E VA BEACH    0750   53 49   90/  8/ 10 1029.4    2/ 8   2/ 8
DUCK             0742   54 54   80/ 14/ 15 1027.9
2 E DUCK         0800      53                N/A     2/15   2/15
OREGON INLET     0742   53 59   50/  6/  9 1028.0
13E OREGON INLT  0748      51                N/A     2/ 5   2/ 5
HATTERAS CG      0742   61 62  100/  5/  8 1027.0
DIAMOND BUOY     0800   66 72  120/ 12/ 16 1027.3
CAPE LOOKOUT     NOT AVBL
BEAUFORT LAB     0742   62 63  120/  8/ 11 1026.1
30 SE NEW RVR IN 0708   66 66  120/ 12/ 16 1025.6
30 SE NEW RVR IN 0800      65                N/A     4/ 5
27 SE WRIGHTSVLE 0708   66 65  120/ 19/ 25 1024.3
5 SE WRIGHTSVLE  0708   63 60  120/ 12/ 16 1024.0
225 S CAPE HAT   0800   68 72  100/ 16/ 19 1023.9
41 SE CHARLESTON 0800   69 67  120/ 17/ 21 1021.3

$$




USA.gov is the U.S. government's official web portal to all federal, state and local government web resources and services.